Regional Weather Roundup
Issued by NWS

Home | Current Version | Previous Version | Text Only | Print | Product List | Glossary Off
Versions: 1 2 3 4 5 6 7 8 9 10 11 12 13 14 15 16 17 18 19 20 21 22 23 24 25 26 27 28 29 30 31 32 33 34 35 36 37 38 39 40 41 42 43 44 45 46 47 48 49 50

000
ASUS43 KDMX 070803
RWRIA

WEATHER ROUNDUP FOR IOWA
NATIONAL WEATHER SERVICE DES MOINES IA
200 AM CST SUN FEB 07 2016

NOTE: "FAIR" INDICATES FEW OR NO CLOUDS BELOW 12,000 FEET WITH NO
SIGNIFICANT WEATHER AND/OR OBSTRUCTIONS TO VISIBILITY.

* - THESE STATIONS ARE NOT NWS STATIONS...THUS NOT UNDER NWS
QUALITY CONTROL.  THEY ALSO DO NOT REPORT WEATHER SUCH
AS PRECIPITATION OR FOG.

IAZ001>003-012>014-020>022-031>034-043>046-070900-
   NORTHWEST IOWA

CITY           SKY/WX    TMP DP  RH WIND       PRES   REMARKS
CARROLL *      CLOUDY    32  27  80 SW18      29.83F WCI  20
CHEROKEE *     MOCLDY    34  30  86 SW7       29.84S WCI  28
DENISON *      PTCLDY    30  27  86 SW9       29.86R WCI  22
LE MARS *      CLOUDY    37  32  81 W12       29.86S WCI  30
ORANGE CITY *  PTCLDY    30  28  93 W10       29.83R WCI  21
SHELDON *      PTCLDY    34  28  80 W15       29.79S WCI  24
SIOUX CITY     CLOUDY    29  24  82 W3        29.88R
SPENCER        CLOUDY    33  26  75 SW16      29.79S WCI  23
STORM LAKE *   CLOUDY    32  30  93 SW14      29.83R WCI  22
$$

IAZ055>058-069>071-079>083-090>094-070900-
   SOUTHWEST IOWA

CITY           SKY/WX    TMP DP  RH WIND       PRES   REMARKS
ATLANTIC *     PTCLDY    32  27  80 SW7       29.92S WCI  26
AUDUBON *      PTCLDY    30  27  86 SW7       29.88F WCI  23
CLARINDA *     PTCLDY    34  28  80 S6        29.97S WCI  29
COUNCIL BLFS * CLOUDY    34  28  80 W6        29.91F WCI  29
CRESTON *      CLOUDY    36  28  75 SW13      29.93F WCI  27
HARLAN  *      CLEAR     27  23  86 SW7       29.93F WCI  19
LAMONI         CLOUDY    37  28  70 SW17      29.93F WCI  27
RED OAK *      CLOUDY    32  30  93 SW6       29.94S WCI  26
SHENANDOAH *   CLOUDY    34  32  93 SW8       29.95F WCI  27
$$

IAZ047>049-059>061-072>074-084-070900-
   CENTRAL IOWA

CITY           SKY/WX    TMP DP  RH WIND       PRES   REMARKS
AMES           CLOUDY    35  29  78 W9        29.88F WCI  28
ANKENY *       CLOUDY    37  30  75 SW10      29.88F WCI  30
BOONE *        CLOUDY    36  28  75 W17       29.85S WCI  25
CHARITON *     CLOUDY    39  28  65 SW12      29.92S WCI  32
DES MOINES     CLOUDY    38  27  64 SW10      29.89F WCI  31
GRINNELL*      MOCLDY    36  30  80 SW15      29.89F WCI  26
KNOXVILLE *    PTCLDY    37  28  70 SW9       29.90F WCI  31
MARSHALLTOWN   CLOUDY    37  28  70 SW13      29.85F WCI  29
NEWTON *       PTCLDY    36  32  87 SW13      29.89F WCI  27
PELLA *        PTCLDY    38  29  69 SW13G18   29.92F WCI  30
$$

IAZ004>006-015-016-023>025-035-036-070900-
   NORTH CENTRAL IOWA

CITY           SKY/WX    TMP DP  RH WIND       PRES   REMARKS
ALGONA *       CLOUDY    32  28  86 SW16      29.77S WCI  21
CLARION *      CLOUDY    34  28  80 SW16      29.80F WCI  23
ESTHERVILLE    MOCLDY    33  28  81 W17       29.76S WCI  22
FORT DODGE *   MOCLDY    34  27  75 S9        29.82F WCI  26
MASON CITY     CLOUDY    33  27  78 SW20G29   29.77F WCI  21
FOREST CITY *  CLOUDY    32  28  86 SW16      29.77S WCI  21
WEBSTER CITY * CLOUDY    34  28  80 SW17      29.80F WCI  23
IOWA FALLS *     N/A     36  30  80 SW18      29.83F WCI  25
$$

IAZ007>011-017>019-026>030-037>042-050>054-066-070900-
   NORTHEAST IOWA

CITY           SKY/WX    TMP DP  RH WIND       PRES   REMARKS
CEDAR RAPIDS   PTCLDY    36  30  79 SW13      29.88F WCI  27
CHARLES CITY * CLOUDY    34  34 100 SW14      29.79F WCI  24
CLINTON *      CLOUDY    37  31  78 SW14      29.94F WCI  28
DECORAH *      CLOUDY    36  30  80 SW12      29.78F WCI  27
DUBUQUE        CLOUDY    35  30  82 S17       29.87F WCI  25
MONTICELLO *   CLOUDY    37  30  75 SW10      29.89F WCI  30
OELWEIN *      CLOUDY    36  32  87 SW14      29.84F WCI  27
WATERLOO       CLOUDY    37  29  72 SW15      29.84F WCI  28
$$

IAZ064-065-067-068-078-070900-
   EAST CENTRAL IOWA

CITY           SKY/WX    TMP DP  RH WIND       PRES   REMARKS
DAVENPORT      MOCLDY    39  29  67 S16       29.94F WCI  30
IOWA CITY      CLEAR     37  29  72 S12       29.92F WCI  29
MT. PLEASANT * PTCLDY    40  32  74 S15       29.97F WCI  31
MUSCATINE *    PTCLDY    39  30  70 SW18G24   29.94F WCI  30
QUAD CITIES    CLOUDY    39  29  67 SW15      29.94F WCI  31
$$

IAZ062-063-075>077-085>089-095>099-070900-
   SOUTHEAST IOWA

CITY           SKY/WX    TMP DP  RH WIND       PRES   REMARKS
BURLINGTON     CLOUDY    38  30  73 S15       29.97F WCI  29
FAIRFIELD *    CLOUDY    37  28  70 SW15G23   29.94S WCI  28
FORT MADISON * PTCLDY    37  30  75 S14G20    29.99F WCI  29
KEOKUK *       CLOUDY    39  30  70 S13       30.00F WCI  32
OSKALOOSA *      N/A     37  30  75 SW14      29.92F WCI  29
OTTUMWA        CLEAR     38  28  67 SW13      29.93S WCI  30
WASHINGTON *   PTCLDY    37  30  75 SW16      29.94F WCI  28
$$

ABBREVIATIONS USED IN REMARKS
   TC - TEMPERATURES IN CELSIUS
  WCI - WIND CHILL INDEX
   HX - HEAT INDEX
  VSB - VISIBILITY
$$




USA.gov is the U.S. government's official web portal to all federal, state and local government web resources and services.